Location: Makanda
(37.6176°N, 89.2090°W)
Time: 10:15:42
(UTC+00:00)

CZ-4 R/B - Pass Details

Date: 23 September 2019
Orbit: 532 x 598 km, 97.8° (Epoch: 13 October)

Event Time Altitude Azimuth Distance (km) Brightness Sun altitude
Rises 00:29:33 0° 175° (S) 2,672 4.7 -7.9°
Reaches altitude 10° 00:31:40 10° 180° (S) 1,792 3.9 -8.3°
Maximum altitude 00:35:28 58° 260° (W) 640 2.0 -9.0°
Drops below altitude 10° 00:39:23 10° 340° (NNW) 1,837 4.4 -9.8°
Sets 00:41:34 0° 344° (NNW) 2,747 5.2 -10.2°
